Simultaneous Nadir Overpasses (SNOs) Predictions

Prediction of SNOs between AQUA and GOES-15 Satellite Orbit:

Table of predicted SNOs for the next 14.0 days since TLE Epoch: 4/19/2013
Index Date Time (AQUA) AQUA Lat,Lon GOES-15 Lat,Lon Distance(km) Time Diff (sec)
1 04/20/2013 22:36:03 -0.05,-134.99 -0.04,-135.10 13.09 80
2 04/22/2013 22:23:52 0.61,-132.03 -0.05,-135.16 355.02 80
3 04/23/2013 10:45:08 0.44,-137.20 0.04,-135.18 229.10 80
4 04/25/2013 10:32:56 -0.18,-134.24 0.04,-135.22 112.28 80
5 04/25/2013 22:54:20 -0.93,-139.43 -0.03,-135.22 477.99 80
6 04/27/2013 10:20:44 -0.82,-131.28 0.04,-135.26 452.81 80
7 04/27/2013 22:42:08 -0.28,-136.47 -0.03,-135.26 137.60 80
8 04/29/2013 22:29:55 0.33,-133.50 -0.03,-135.28 202.29 80
9 04/30/2013 10:51:11 0.71,-138.67 0.03,-135.30 382.16 80
10 05/02/2013 10:38:57 0.14,-135.69 0.03,-135.32 42.66 80




NCC Satellite Simultaneous Nadir Overpasses (SNOs) Prediction Service
